Location: Carabito
(9.8355°N, 67.9249°W)
Time: 23:08:13
(UTC+00:00)

Cosmos 2333 Rocket - Pass Details

Date: 23 May 2024
Orbit: 838 x 863 km, 70.8° (Epoch: 25 June)

Event Time Altitude Azimuth Distance (km) Brightness Sun altitude
Rises 09:32:52 0° 306° (NW) 3,424 5.1 -9.3°
Reaches altitude 10° 09:37:42 10° 269° (W) 2,493 4.1 -8.2°
Maximum altitude 09:38:55 11° 257° (WSW) 2,447 4.0 -7.9°
Drops below altitude 10° 09:40:08 10° 245° (WSW) 2,494 4.0 -7.6°
Sets 09:45:01 0° 208° (SSW) 3,433 4.9 -6.5°
